Weather History for Cody, WY

Change the Weather History Date:

Wednesday, December 12, 2012

  Actual Average Record
Temperature  
Mean Temperature 34 °F -  
Max Temperature 44 °F 34 °F 60 °F (1921)
Min Temperature 23 °F 16 °F -31 °F (1919)
Degree Days  
Heating Degree Days 31    
Moisture  
Dew Point 22 °F    
Average Humidity 61    
Maximum Humidity 100    
Minimum Humidity 39    
Precipitation  
Precipitation 0.00 in - - ()
Sea Level Pressure  
Sea Level Pressure 29.60 in    
Wind  
Wind Speed 8 mph (South)    
Max Wind Speed 17 mph    
Max Gust Speed 31 mph    
Visibility 10 miles    
Events      
Averages and records for this station are not official NWS values.
T = Trace of Precipitation, MM = Missing Value Source: NWS Daily Summary

Daily Weather History Graph

Daily Weather History Graph

Search for Another Location

Airport:

Trip Planner

Search our weather history database for the weather conditions in past years. The results will help you decide how hot, cold, wet, or windy it might be!

Date:

Astronomy

Dec. 12, 2012 Rise Set
Actual Time 7:43 AM MST 4:36 PM MST
Civil Twilight 7:10 AM MST 5:09 PM MST
Nautical Twilight 6:33 AM MST 5:46 PM MST
Astronomical Twilight 5:58 AM MST 6:21 PM MST
Moon 6:50 AM MST (12/12) 4:17 PM MST (12/12)
Length of Visible Light 9h 59m
Length of Day
8h 52m
Waning Crescent, 0% of the Moon is Illuminated
Dec 12
Waning Crescent
Dec 13
New
Dec 19
First Quarter
Dec 28
Full
Jan 4
Last Quarter

Hourly Weather History & Observations

Time (MST) Temp. Windchill Dew Point Humidity Pressure Visibility Wind Dir Wind Speed Gust Speed Precip Events Conditions
12:15 AM 37.4 °F 32.1 °F 21.2 °F 52% 29.56 in 10.0 mi SW 6.9 mph - N/A   Overcast
12:35 AM 35.6 °F 28.0 °F 21.2 °F 56% 29.55 in 10.0 mi South 10.4 mph - N/A   Overcast
12:55 AM 37.4 °F 29.8 °F 21.2 °F 52% 29.55 in 10.0 mi SSW 11.5 mph - N/A   Mostly Cloudy
1:15 AM 39.2 °F 32.5 °F 21.2 °F 49% 29.55 in 10.0 mi South 10.4 mph 17.3 mph N/A   Scattered Clouds
1:35 AM 41.0 °F 32.8 °F 19.4 °F 42% 29.54 in 5.0 mi SE 16.1 mph 20.7 mph N/A   Mostly Cloudy
1:55 AM 39.2 °F 37.0 °F 21.2 °F 49% 29.54 in 10.0 mi East 3.5 mph - N/A   Overcast
2:15 AM 32.0 °F 24.8 °F 19.4 °F 60% 29.55 in 10.0 mi SSE 8.1 mph - N/A   Overcast
2:35 AM 41.0 °F 39.0 °F 23.0 °F 49% 29.54 in 10.0 mi ESE 3.5 mph 16.1 mph N/A   Overcast
2:55 AM 41.0 °F 34.7 °F 21.2 °F 45% 29.54 in 10.0 mi East 10.4 mph 16.1 mph N/A   Overcast
3:15 AM 41.0 °F 34.7 °F 21.2 °F 45% 29.54 in 10.0 mi NNE 10.4 mph 19.6 mph N/A   Overcast
3:35 AM 39.2 °F 35.0 °F 21.2 °F 49% 29.53 in 10.0 mi ENE 5.8 mph - N/A   Overcast
3:55 AM 32.0 °F 25.6 °F 21.2 °F 64% 29.53 in 10.0 mi SSE 6.9 mph - N/A   Overcast
4:15 AM 30.2 °F 21.9 °F 19.4 °F 64% 29.53 in 10.0 mi South 9.2 mph - N/A   Mostly Cloudy
4:35 AM 30.2 °F 21.9 °F 19.4 °F 64% 29.53 in 10.0 mi SSE 9.2 mph - N/A   Mostly Cloudy
4:55 AM 28.4 °F 18.5 °F 19.4 °F 69% 29.54 in 10.0 mi SSE 11.5 mph - N/A   Mostly Cloudy
5:15 AM 32.0 °F 23.6 °F 19.4 °F 60% 29.54 in 10.0 mi SSE 10.4 mph - N/A   Mostly Cloudy
5:35 AM 30.2 °F 24.3 °F 17.6 °F 60% 29.54 in 10.0 mi SSW 5.8 mph - N/A   Partly Cloudy
6:15 AM 28.4 °F 19.7 °F 17.6 °F 64% 29.53 in 10.0 mi South 9.2 mph - N/A   Clear
6:55 AM 28.4 °F 22.2 °F 17.6 °F 64% 29.53 in 10.0 mi SSE 5.8 mph - N/A   Clear
7:15 AM 32.0 °F 26.4 °F 19.4 °F 60% 29.53 in 10.0 mi SSE 5.8 mph - N/A   Clear
7:35 AM 28.4 °F 22.2 °F 17.6 °F 64% 29.53 in 10.0 mi SSE 5.8 mph - N/A   Clear
7:55 AM 28.4 °F 19.7 °F 17.6 °F 64% 29.53 in 10.0 mi SSE 9.2 mph - N/A   Clear
8:15 AM 28.4 °F 18.5 °F 19.4 °F 69% 29.52 in 10.0 mi SSE 11.5 mph - N/A   Clear
8:35 AM 30.2 °F 23.4 °F 19.4 °F 64% 29.53 in 10.0 mi SSE 6.9 mph - N/A   Clear
8:55 AM 33.8 °F 29.6 °F 21.2 °F 60% 29.53 in 10.0 mi SSE 4.6 mph - N/A   Clear
9:15 AM 35.6 °F 29.9 °F 21.2 °F 56% 29.53 in 10.0 mi SSE 6.9 mph - N/A   Clear
9:35 AM 35.6 °F 31.7 °F 21.2 °F 56% 29.54 in 10.0 mi ESE 4.6 mph - N/A   Clear
9:55 AM 37.4 °F - 24.8 °F 60% 29.54 in 10.0 mi Calm Calm - N/A   Clear
10:35 AM 42.8 °F 39.3 °F 24.8 °F 49% 29.54 in 10.0 mi WNW 5.8 mph - N/A   Clear
10:55 AM 42.8 °F 36.6 °F 24.8 °F 49% 29.54 in 10.0 mi West 11.5 mph - N/A   Clear
11:15 AM 42.8 °F 38.0 °F 24.8 °F 49% 29.53 in 10.0 mi West 8.1 mph 16.1 mph N/A   Clear
11:55 AM 44.6 °F 38.8 °F 24.8 °F 46% 29.54 in 10.0 mi West 11.5 mph 17.3 mph N/A   Clear
12:15 PM 44.6 °F 40.7 °F 24.8 °F 46% 29.54 in 10.0 mi West 6.9 mph 23.0 mph N/A   Scattered Clouds
12:35 PM 44.6 °F 41.4 °F 24.8 °F 46% 29.54 in 10.0 mi West 5.8 mph 17.3 mph N/A   Partly Cloudy
12:55 PM 44.6 °F 39.7 °F 24.8 °F 46% 29.54 in 10.0 mi West 9.2 mph 16.1 mph N/A   Clear
1:15 PM 44.6 °F 38.8 °F 24.8 °F 46% 29.53 in 10.0 mi West 11.5 mph 19.6 mph N/A   Clear
1:55 PM 44.6 °F 38.4 °F 23.0 °F 43% 29.54 in 10.0 mi West 12.7 mph 17.3 mph N/A   Clear
2:15 PM 44.6 °F 38.1 °F 21.2 °F 39% 29.56 in 10.0 mi West 13.8 mph 20.7 mph N/A   Clear
2:56 PM 42.8 °F 35.4 °F 21.2 °F 42% 29.56 in 10.0 mi WSW 15.0 mph 27.6 mph N/A   Clear
3:35 PM 41.0 °F 32.5 °F 23.0 °F 49% 29.57 in 10.0 mi WSW 17.3 mph 31.1 mph N/A   Clear
3:56 PM 41.0 °F 33.5 °F 21.2 °F 45% 29.59 in 10.0 mi WSW 13.8 mph 28.8 mph N/A   Clear
4:15 PM 39.2 °F 34.2 °F 23.0 °F 52% 29.61 in 10.0 mi WNW 6.9 mph - N/A   Clear
4:35 PM 39.2 °F 33.0 °F 21.2 °F 49% 29.63 in 10.0 mi West 9.2 mph 17.3 mph N/A   Clear
4:55 PM 37.4 °F 30.8 °F 23.0 °F 56% 29.65 in 10.0 mi West 9.2 mph 21.9 mph N/A   Clear
5:15 PM 37.4 °F 32.8 °F 24.8 °F 60% 29.65 in 10.0 mi SSW 5.8 mph 17.3 mph N/A   Clear
5:35 PM 37.4 °F 27.8 °F 21.2 °F 52% 29.67 in 10.0 mi SW 17.3 mph 28.8 mph N/A   Partly Cloudy
5:55 PM 37.4 °F 32.8 °F 23.0 °F 56% 29.68 in 10.0 mi West 5.8 mph 17.3 mph N/A   Scattered Clouds
6:15 PM 37.4 °F 32.1 °F 19.4 °F 48% 29.70 in 10.0 mi NE 6.9 mph 16.1 mph N/A   Mostly Cloudy
6:35 PM 33.8 °F 23.9 °F 21.2 °F 60% 29.72 in 10.0 mi NNE 15.0 mph 20.7 mph N/A   Scattered Clouds
7:15 PM 28.4 °F 19.1 °F 24.8 °F 86% 29.74 in 10.0 mi East 10.4 mph - N/A   Clear
7:35 PM 28.4 °F 18.5 °F 21.2 °F 74% 29.75 in 10.0 mi NE 11.5 mph - N/A   Clear
7:55 PM 26.6 °F 20.0 °F 24.8 °F 93% 29.76 in 10.0 mi NNE 5.8 mph - N/A   Clear
8:35 PM 26.6 °F - 24.8 °F 93% 29.77 in 10.0 mi Calm Calm - N/A   Clear
9:15 PM 26.6 °F 21.2 °F 24.8 °F 93% 29.78 in 10.0 mi East 4.6 mph - N/A   Clear
9:36 PM 26.6 °F 20.0 °F 26.6 °F 100% 29.78 in 10.0 mi South 5.8 mph - N/A   Clear
9:55 PM 28.4 °F 24.6 °F 26.6 °F 93% 29.79 in 10.0 mi SSE 3.5 mph - N/A   Clear
10:15 PM 24.8 °F 19.1 °F 21.2 °F 86% 29.79 in 10.0 mi SSE 4.6 mph - N/A   Clear
10:35 PM 24.8 °F - 24.8 °F 100% 29.81 in 10.0 mi Calm Calm - N/A   Clear
10:55 PM 24.8 °F 14.6 °F 21.2 °F 86% 29.81 in 10.0 mi SSE 10.4 mph - N/A   Clear
11:35 PM 24.8 °F 16.9 °F 21.2 °F 86% 29.82 in 10.0 mi SSE 6.9 mph - N/A   Scattered Clouds
11:55 PM 23.0 °F 14.7 °F 19.4 °F 86% 29.82 in 10.0 mi South 6.9 mph - N/A   Mostly Cloudy